AQI (40)

Current Conditions for Foresthill, CA. Sunny, Dry   
Visibility: 10 miles
Space WX Alerts: ALERT:  Type II Radio Emission ( Latest Alert ) - Issue Time: 2019 Apr 22 0424 UTC

  Summary / Temperature 

Current Temperature
75.1°F
23.9°C
(24/hr Ago)
63.4°F
(Apparent temp)
72.6°F
Comfortable
Heat Index
74.5°F 

75.1°F/ 23.9°C
Little or no discomfort

 Temp Rate:

 24/hr Difference:

 Avg Running Temp:

 Todays High:

 Todays Low:

 Y-days High:

 Y-days Low:

 Todays HeatIdx:

 Y-days HeatIdx:

 Evapotranspiration:

+1.2°F/hr 

+11.7°F

76.1°F

78.7°F 2:12pm

50.6°F 6:21am

64.8°F 1:40pm

42.7°F 5:46am

77.7°F 2:15pm

66.1°F 1:42pm

0.145 in

115' Above Ground

 Temperature:

 6'AGL VRS 115'AGL:

 Avg Running Temp:

 Humidity:

 Todays High:

 Todays Low:

 Y-days High:

 Y-days Low:

75.0°F 

-0.099999999999994°F

74.3°F

33% 

77.0°F 2:00pm

56.0°F 2:18am

65.0°F 5:10pm

45.0°F 5:26am

Temp & Humidity Graphs

  Wind 

Wind Speed

 Calm

Gusting to

 8.0 mph

Wind from NNW

344°  NNW

Calm

 Avg speed:

 Wind Run:

 Peak Gust:

  2.0 mph 

35.0 miles

  21.0 mph 1:34pm

  Almanac  

Moon age: 18 days,9 hours,52 minutes,86%

Waning Gibbous
86%
Illuminated
18 days in cycle

 Moonrise:

 Moonset:

 Sunrise:

 Sunset:

 Solar Noon:

11:34pm

8:43am

6:14am

7:45pm

1:02pm

2min 26s more daylight tomorrow 

  Solar Radiation 

(Current Solar)
  712 W/m2 (82%)
(Todays High)
 933 W/m2@1:12pm
Feels like: 86.7°F in the sun

Rain

 Rain Today:

 Rain Rate (/hr):

 Rain last hour:

 Rain Yesterday:

 This Month:

 Season Total:

5 Days Since Last Rain Day

0.00 in

0.000 in

0.00 in

0.00 in

2.63 in

47.38 in

Updated Time

Updated: 4/22/19  3:36pm

(Updated  sec ago)

Humidity & Barometer

 Humidity:

 Wetbulb:

 Dew Point:

 Barometer:

33% 

59.6°F 

44.0°F 

30.058 inHg 

 Baro Trend:  Falling Slowly 
Northern Calif
Preparedness
Fire 
Level 

    UV Index  

(Current UV)
4.7  Medium
(Todays High) @ 12:38pm
7.7   High

National Weather Service Forecast

This
Afternoon
This Afternoon: Sunny
Sunny
Tonight

Tonight: Clear
Clear
Tuesday

Tuesday: Sunny
Sunny
Tuesday
Night
Tuesday Night: Mostly Clear
Mostly Clear
Wednesday

Wednesday: Sunny
Sunny
Wednesday
Night
Wednesday Night: Mostly Clear
Mostly Clear
Hi 76 °F Lo 54 °F Hi 79 °F ↓ Lo 57 °F Hi 80 °F Lo 57 °F

Foresthill Probe 2 Stats  
Foresthill Probe 2: is located on Thomas Street
at 3000 feet. The main Foresthill Weather site
is located on Melody ln at the 2860 foot elevation

Light Air
78.7°F
25.9°C
Temp Rate:
+2.3°F
1.0 mph
Gusting to
8.0 mph
(Humidity)
15%
Wind from N
  N
Updated: 22/04/19 - 15:31:22
 Todays High: 78.9°F 15:29
 Todays Low: 48.5°F 07:09
 Rain Today: 0.00 in
 Season Total: 51.47 in

Foresthill Wx: Monthly,Yearly, Highs and Lows 

Foresthill  
This Weather Data is coming from the main Foresthill
Weather site located on Melody ln at the 2860 foot
elevation
Not Foresthill Probe 2
Weather Data
Month
  High
Month
  Low
Year
High
Year
Low
Temp 78.7°F
4/22/19
38.0°F
4/10/19
78.7°F
4/22/19
24.5°F
2/18/19
Humidity 99%
4/9/19
17%
4/22/19
100%
1/9/19
17%
4/22/19
Heat Index 78.1°F
4/19/19
40.1°F
4/10/19
78.1°F
4/19/19
30.1°F
2/22/19
Wind Chill 78.7°F
4/22/19
32.3°F
4/15/19
78.7°F
4/22/19
11.5°F
2/11/19
Wind Gust 25 mph
4/14/19
0 mph
4/1/19
48 mph
2/27/19
0 mph
1/1/19
Barometer 30.35 in
4/7/19
29.76 in
4/20/19
30.54 in
1/23/19
29.37 in
2/14/19
ET 0.18 in
4/19/19
0.00 in
4/1/19
0.18 in
4/19/19
0.00 in
1/1/19
Dew Point 53.7°F
4/7/19
25.4°F
4/10/19
53.7°F
4/7/19
7.7°F
1/1/19
Pacific Satellite US Radar Satellite Imagery Sacramento,CA.  (click to enlarge)
NWS Weather Forecast - Summary
Updated: Monday, April 22, 2019 - 3:00pm PDT
Current Interstate Highway Conditions for I-80 & US-50

[I 80: IN THE SAN FRANCISCO BAY AREA - SOLANO CO]
no traffic restrictions are reported for this area.

[I 80: IN THE NORTHERN CALIFORNIA AREA & SIERRA NEVADA]
the westbound connector to northbound sr 65 /in roseville/ (PLACER CO) is closed from 11:00pm each night to 5:00am each morning sunday thru thursday thru 4/25/19 - due to construction

[US 50: IN THE SACRAMENTO VALLEY & THE LAKE TAHOE BASIN]
  1-way controlled traffic at various locations from 2. 1 mi east of placerville /at still meadows rd/ to sly park rd /in pollock pines/ (EL DORADO CO) from 7:00am to 5:30pm monday thru friday thru 4/26/19 - due to emergenchy work
is reduced to 1 lane in each direction from clay st to carson rd /in placerville/ (EL DORADO CO) 24 hrs a day thru 2359 hrs on 4/26/19 - due to construction
NWS Weather Forecast: This Afternoon and Tonight (Updated: Mon, 22-Apr-2019 2:23pm PDT)
This
Afternoon
This Afternoon: Sunny
Sunny

Hi 76 °F
NWS forecast: Sunny, with a high near 76. North northwest wind around 6 mph.
Tonight

Tonight: Clear
Clear

Lo 54 °F
NWS forecast: Clear, with a low around 54. Northeast wind 6 to 10 mph.
YR.NO 10 Day Weather forecast
Last update: 04/22/2019 @ 00:34
Next update: 04/22/2019 @ 13:00
Provided by: 22
      Temperature Precipitation Pressure Wind  
Today
04/22/2019
13:00 18:00 73°F   30.03 inHg Light air from west-northwest 3 mph
  18:00 00:00 72°F   29.98 inHg Light breeze from north-northeast 7 mph
    (Click to enlarge)
meteogram

    Forecast for next 9 days

      Temperature Precip Pressure Wind  
Tuesday
04/23/2019
00:00 06:00 50°F   30.01 inHg Light breeze from east-northeast 5 mph
  06:00 12:00 46°F   30.00 inHg Light breeze from east-northeast 7 mph
  12:00 18:00 75°F   30.00 inHg Light breeze from west 5 mph
  18:00 00:00 72°F   29.93 inHg Light breeze from west-northwest 4 mph
      Temperature Precip Pressure Wind  
Wednesday
04/24/2019
00:00 06:00 52°F   29.94 inHg Light breeze from east-northeast 7 mph
  06:00 12:00 48°F   29.92 inHg Light breeze from east-northeast 7 mph
  12:00 18:00 75°F   29.95 inHg Light breeze from southwest 6 mph
  17:00 23:00 75°F   29.90 inHg Light breeze from west-southwest 5 mph
  23:00 05:00 54°F   29.93 inHg Light breeze from east-northeast 5 mph
      Temperature Precip Pressure Wind  
Thursday
04/25/2019
05:00 11:00 50°F   29.91 inHg Light breeze from east-northeast 6 mph
  11:00 17:00 77°F   29.94 inHg Light breeze from south-southwest 5 mph
  17:00 23:00 73°F   29.90 inHg Light breeze from southwest 6 mph
  23:00 05:00 54°F   29.94 inHg Light breeze from east-northeast 5 mph
      Temperature Precip Pressure Wind  
Friday
04/26/2019
05:00 11:00 50°F   29.91 inHg Light breeze from east-northeast 6 mph
  11:00 17:00 73°F   29.92 inHg Light breeze from southwest 6 mph
  17:00 23:00 73°F   29.88 inHg Light breeze from west-southwest 5 mph
  23:00 05:00 50°F   29.91 inHg Light air from east-northeast 3 mph
      Temperature Precip Pressure Wind  
Saturday
04/27/2019
05:00 11:00 46°F   29.85 inHg Light breeze from east-northeast 6 mph
  11:00 17:00 73°F   29.84 inHg Light breeze from southwest 4 mph
  17:00 23:00 73°F   29.77 inHg Light breeze from southwest 6 mph
  23:00 05:00 55°F   29.81 inHg Light air from east 3 mph
      Temperature Precip Pressure Wind  
Sunday
04/28/2019
05:00 11:00 46°F   29.77 inHg Light breeze from east-northeast 5 mph
  11:00 17:00 66°F   29.81 inHg Light breeze from southwest 4 mph
  17:00 23:00 68°F   29.74 inHg Light breeze from west-southwest 5 mph
  23:00 05:00 50°F   29.82 inHg Light air from southeast 2 mph
      Temperature Precip Pressure Wind  
Monday
04/29/2019
05:00 11:00 43°F   29.83 inHg Light air from east 2 mph
  11:00 17:00 61°F   29.88 inHg Light breeze from southwest 5 mph
  17:00 23:00 64°F   29.85 inHg Light breeze from southwest 6 mph
  23:00 05:00 48°F   29.92 inHg Light air from east-southeast 2 mph
      Temperature Precip Pressure Wind  
Tuesday
04/30/2019
05:00 11:00 39°F   29.92 inHg Light air from east-northeast 2 mph
  11:00 17:00 63°F   29.95 inHg Light breeze from southwest 5 mph
  17:00 23:00 63°F   29.89 inHg Light breeze from southwest 6 mph
  23:00 05:00 48°F   29.92 inHg Light air from east 2 mph
      Temperature Precip Pressure Wind  
Wednesday
05/01/2019
05:00 11:00 41°F   29.89 inHg Light air from east 3 mph
  11:00 17:00 59°F   29.88 inHg Gentle breeze from south-southwest 8 mph

NOAA Local Storm Report
4 MILES WEST-SOUTHWEST OF LAMAR   ( More )
DATE
04/20/2019
TIME
8:51 PM
COUNTY
PROWERS
STATE
CO
GEOGRAPHIC
38.07N 102.68W
SOURCE
ASOS
THUNDERSTORM WIND GUST MEASURED AT 82 MPH
asos station klaa lamar airport. Virga causing very strong winds iat lamar airport. Also prowers county comms reporting 70 mph winds around 9:02 pm in the city of lamar.
How Close Are We To this Month's Temperature Record ?
Updated Monday, Apr 22, 2019- 3:30:01 PM

Current Temperature: 75.1°F

April's High: Temperature Record 83.2°F - Set on Sun, Apr 22, 2012 - 2:12:00 PM
We are currently 8.1°F Less than this Month's record High

April's Low: Temperature Record 31.4°F - Set on Thu, Apr 5, 2012 - 6:23:00 AM
We are currently 43.7°F More than this Month's record Low

Weather History For Monday, April 22, 2019


On this Day - In Weather History ...
Data courtesy of weatherforyou.com
powered by Cumulus v1.9.3 (1059)
Ambient Weather VWS v14.00
Top Contact Website Map Copyright © 2007 - 2019 Foresthillweather.com Never base important decisions on this or any weather information obtained from the Internet